EHI
0 0 1 0 0 1 7 13 17 17 13 8 4 2 1 0 0 0 0 0 0 0 0 0 0 0 0 0 0 0 0 0 0 0 0 0 0 0 0 0 0 0 0
0 1 2 1 0 2 9 17 20 18 14 8 3 1 0 0 0 0 0 0 0 0 0 0 0 0 0 0 0 0 0 0 0 0 0 0 0 0 0 0 0 0 0
1 2 3 2 2 4 11 20 22 18 13 7 2 1 1 2 1 0 0 0 0 0 0 0 0 0 0 0 0 0 0 0 0 0 0 0 0 0 0 0 0 0 0
1 3 4 4 3 4 11 20 21 16 10 5 1 2 3 3 1 0 0 0 0 0 0 0 0 0 0 0 0 0 0 0 0 0 0 0 0 0 0 0 0 0 0
1 4 8 7 5 4 9 15 16 12 7 4 2 3 4 3 1 0 0 0 0 0 0 0 0 1 1 0 0 0 0 0 0 0 0 0 0 0 0 0 0 0 0
1 5 11 12 7 5 6 9 9 7 5 4 4 4 3 1 0 0 0 0 0 0 0 0 0 1 1 0 0 0 0 0 0 0 0 0 0 0 0 0 0 0 0
0 5 12 15 11 7 5 6 6 5 4 3 3 2 1 0 0 0 0 0 0 0 0 0 0 1 1 0 0 0 0 0 0 0 0 0 0 0 0 0 0 0 0
0 5 13 15 12 8 6 6 7 6 4 3 2 1 0 0 0 0 0 0 0 0 0 0 0 0 0 0 0 0 1 2 1 0 0 0 0 0 0 0 0 0 0
1 6 12 13 10 8 7 7 8 8 7 5 3 1 0 0 0 0 0 0 0 0 0 0 0 0 0 0 0 0 1 2 1 0 0 0 0 0 0 0 0 0 0
3 6 9 10 8 7 7 7 8 9 8 6 4 1 0 0 0 0 0 0 0 0 0 0 0 0 0 0 0 0 1 2 1 0 0 0 0 0 0 0 0 0 0
6 5 6 7 6 6 6 7 8 8 6 4 2 0 0 0 0 0 0 0 0 0 0 0 0 0 0 0 0 0 0 0 0 0 0 0 0 0 0 0 0 0 0
10 7 5 5 5 5 5 7 8 6 3 1 0 0 0 1 0 0 1 0 0 0 0 0 0 0 0 0 0 0 0 0 0 0 0 0 0 0 0 0 0 0 0
19 14 8 8 7 6 6 9 9 6 3 2 1 0 0 0 0 0 0 0 0 0 0 0 0 0 0 0 0 0 0 0 0 0 0 0 0 0 0 0 0 0 0
32 25 18 14 12 11 11 11 10 8 5 4 2 1 0 0 1 1 1 1 0 0 0 0 0 0 0 0 0 0 0 0 0 0 0 0 0 0 0 0 0 0 0
38 33 27 22 18 17 16 13 9 7 6 5 4 3 1 0 1 2 2 1 0 0 0 0 0 0 0 0 0 0 0 0 0 0 0 0 0 0 0 0 0 0 0
38 35 29 25 23 20 16 12 7 5 5 5 4 3 1 0 1 1 1 1 0 0 0 0 0 0 0 0 0 0 0 0 0 0 0 0 0 0 0 0 0 0 0
37 33 26 22 21 20 15 9 5 4 4 3 2 1 0 0 0 0 0 0 0 0 0 0 0 0 0 0 0 0 0 0 0 0 0 0 0 1 1 0 0 0 0
37 33 25 18 16 19 16 10 6 5 4 2 1 0 0 0 0 0 0 0 0 0 0 0 0 0 0 0 0 0 0 0 0 0 0 0 0 1 1 1 1 0 0
38 35 27 18 15 17 17 13 10 8 4 2 1 0 0 0 0 0 0 0 1 1 1 0 0 0 0 0 0 0 0 0 0 0 0 0 0 0 1 2 2 1 0
37 34 28 22 19 19 18 16 14 10 5 2 1 0 0 0 0 0 0 1 1 1 1 0 0 0 0 0 0 0 0 0 0 0 0 0 0 0 0 2 2 1 0
36 34 30 25 23 23 22 20 16 10 5 2 1 0 0 0 0 0 0 0 1 1 0 0 0 0 0 0 0 0 0 0 0 0 0 0 0 0 0 1 1 1 0
38 35 31 28 27 25 24 21 16 10 5 2 1 0 0 0 0 0 0 0 1 1 0 0 0 0 0 0 0 1 1 1 0 0 0 0 0 0 0 1 2 2 1
35 32 27 26 26 25 23 20 17 13 8 4 2 1 1 1 0 0 0 0 1 1 0 0 1 1 1 0 0 1 2 1 0 0 0 0 0 0 0 1 2 2 1
30 24 21 22 23 22 20 19 18 15 11 8 5 3 2 2 1 0 0 0 1 1 0 0 0 1 1 1 2 2 1 1 0 0 0 0 0 0 0 0 1 1 0
25 21 18 21 22 19 18 17 16 14 11 9 8 5 3 2 1 0 0 0 0 1 1 1 0 0 1 2 4 3 1 1 1 1 0 1 1 1 0 0 0 0 0
23 19 19 22 21 18 17 16 14 11 9 10 10 7 3 1 0 0 1 1 1 1 2 2 1 0 1 2 4 3 2 3 3 2 1 1 2 2 1 1 1 1 0
Wind_Speed
11 13 13 11 12 13 14 14 14 15 14 14 13 13 12 12 12 12 11 11 11 11 12 12 12 12 12 12 13 13 13 13 13 14 14 15 14 14 13 12 12 13 15
15 15 13 12 13 13 14 14 14 14 14 14 13 13 12 11 11 11 11 11 11 11 12 12 12 12 12 12 12 13 13 13 13 14 14 15 15 14 12 10 11 12 14
16 16 15 12 13 13 13 14 14 14 14 13 13 12 12 11 11 11 11 11 12 12 12 12 12 12 12 13 13 13 13 13 13 11 11 12 13 13 13 14 14 14 14
16 16 15 14 13 13 13 13 13 14 13 13 12 12 11 11 11 11 11 12 12 12 12 12 12 13 13 13 13 13 13 12 10 7 8 11 12 13 13 13 13 13 13
15 15 16 15 14 13 13 13 13 13 13 12 12 12 11 11 11 11 11 12 12 12 12 12 12 13 13 13 13 13 12 10 6 5 10 10 10 12 13 13 13 13 13
15 15 17 14 14 13 13 13 12 12 12 12 11 11 11 11 11 11 11 12 12 12 12 12 12 12 12 12 12 12 11 7 6 9 9 9 10 11 12 12 12 12 12
14 14 17 15 14 13 13 12 12 12 11 11 11 11 11 11 11 11 11 11 12 12 12 12 12 12 12 12 12 11 9 3 6 9 9 9 11 11 11 12 12 12 12
14 14 16 15 14 13 12 12 12 11 11 11 10 10 10 11 11 11 11 11 11 11 11 11 11 11 11 11 11 10 7 3 8 8 8 10 11 10 11 11 11 12 12
13 13 14 14 13 13 12 12 11 11 11 10 10 10 10 11 11 11 10 11 11 11 11 11 11 11 11 10 10 9 6 1 6 6 8 9 10 10 11 11 11 11 11
11 12 12 12 12 12 12 12 11 11 11 10 10 10 10 11 11 11 10 10 11 10 10 10 10 10 10 10 10 9 6 5 7 8 6 9 9 9 10 10 10 10 10
10 10 11 12 11 10 11 12 11 11 10 10 10 10 9 8 9 9 11 10 10 10 9 9 9 9 10 10 9 8 6 2 6 5 6 11 8 8 9 9 9 9 9
12 11 9 10 10 9 8 9 7 8 8 7 7 8 6 5 4 7 10 9 9 9 9 8 8 9 7 7 9 8 3 4 5 5 8 9 8 8 8 8 8 8 9
12 11 10 9 9 8 6 6 5 4 5 6 6 6 5 5 5 6 6 8 8 9 7 8 8 4 4 4 3 3 3 3 3 4 9 8 7 8 7 7 7 7 8
12 11 10 9 8 7 5 5 5 5 5 5 6 6 5 3 3 4 3 5 5 4 4 4 3 4 4 4 4 4 3 2 3 4 8 8 7 7 7 7 7 6 6
11 11 10 9 8 7 5 4 5 4 4 5 5 5 4 4 4 4 3 2 3 4 5 3 3 4 4 4 3 4 3 2 2 3 7 8 7 7 7 7 7 7 6
11 11 10 10 9 8 6 5 4 4 4 4 5 6 5 4 4 4 4 3 3 3 3 3 4 4 3 3 3 3 3 3 3 2 5 8 8 7 7 7 7 7 7
11 11 10 10 10 9 8 7 5 5 5 4 4 5 5 5 4 4 4 4 3 3 3 3 3 3 3 4 3 3 2 2 3 3 3 4 7 9 8 7 7 7 8
11 11 10 9 10 10 8 7 5 5 5 4 4 5 6 5 5 4 4 4 3 3 3 3 3 3 3 3 3 2 3 3 3 4 4 4 3 5 9 9 8 7 8
11 11 11 10 10 10 9 7 6 4 4 4 4 5 5 6 6 5 4 3 4 3 3 4 3 3 3 3 3 3 3 3 3 4 4 4 4 3 4 10 10 8 9
10 10 11 10 10 9 8 6 5 5 5 4 4 4 6 5 6 5 4 4 5 4 4 3 3 3 2 3 3 2 3 3 3 4 5 5 5 5 5 5 7 9 11
9 10 10 11 10 8 7 7 7 6 6 5 5 6 7 6 6 5 4 5 5 4 4 5 5 5 4 3 3 3 4 5 4 4 4 4 5 5 5 5 5 4 7
10 10 10 11 10 9 7 6 5 5 5 5 5 5 7 7 7 6 6 5 5 4 5 5 5 4 4 4 4 3 4 5 5 5 5 5 5 5 5 6 5 4 4
10 11 9 10 10 10 8 6 5 4 4 5 6 6 7 7 8 7 7 6 5 6 5 6 6 6 4 4 4 3 3 2 2 4 5 5 5 4 5 4 6 6 6
9 9 9 10 10 9 9 8 9 8 7 7 6 5 7 8 8 7 7 7 6 6 5 7 7 5 5 4 4 4 5 3 3 2 4 4 5 5 4 4 5 5 6
8 8 9 9 9 10 9 9 9 8 7 6 6 6 6 6 8 8 8 7 7 6 6 6 5 6 5 5 4 4 5 4 6 4 3 2 3 3 3 4 3 3 3
8 7 8 8 9 9 10 10 10 10 8 7 7 7 6 5 6 8 8 7 7 6 6 6 6 7 6 5 5 5 4 4 4 4 4 4 3 2 2 2 2 2 2
Wind_Direction
139 130 127 124 123 124 126 127 125 125 125 125 123 122 121 118 114 111 109 108 106 104 103 104 106 106 106 105 103 101 102 103 105 105 105 104 103 103 105 113 119 105 106
136 132 132 128 125 124 125 126 126 127 126 125 124 122 121 119 115 113 112 109 106 104 103 103 104 104 105 104 103 103 103 103 104 107 111 108 102 101 101 95 87 101 110
138 134 140 131 128 126 125 125 126 127 126 125 124 124 123 121 117 114 113 109 105 104 104 102 103 104 104 104 103 102 102 101 104 112 123 111 104 101 98 95 100 108 109
140 140 140 133 132 130 127 126 126 126 125 125 125 125 124 121 118 115 113 109 107 105 104 104 104 104 104 105 105 104 104 104 112 146 116 103 105 102 102 102 108 108 108
139 136 132 141 136 133 129 127 126 126 125 125 125 124 123 121 118 115 113 111 109 106 106 105 104 104 105 106 106 105 105 108 127 119 95 98 101 108 108 108 108 107 107
141 142 135 144 139 137 133 130 128 128 126 125 124 122 121 119 118 116 113 112 109 108 108 106 105 105 107 108 108 108 109 129 158 102 102 106 106 110 110 110 110 108 109
147 141 138 145 143 141 137 134 132 130 128 127 125 121 120 117 116 114 113 111 111 110 109 108 107 107 107 107 108 110 113 134 101 101 106 102 100 109 111 112 112 112 111
148 143 138 146 147 145 142 139 138 135 131 129 126 122 119 117 115 114 115 115 114 113 112 111 109 110 110 109 112 114 125 177 112 104 102 99 103 112 112 113 115 116 115
151 145 148 154 152 149 146 144 142 138 133 131 128 125 123 121 119 117 117 117 116 116 116 115 114 115 115 114 116 117 117 299 112 107 106 101 109 115 116 116 118 119 118
154 153 154 159 153 157 151 148 144 139 137 134 132 130 128 128 127 128 131 120 119 120 120 120 121 121 121 120 122 126 146 214 114 116 108 106 118 122 123 123 124 124 122
160 162 161 156 157 161 154 145 150 146 143 147 142 139 154 151 141 151 115 123 124 123 121 120 122 126 132 129 130 148 186 150 104 98 94 107 127 126 126 127 127 127 127
166 169 165 161 162 163 153 148 160 161 156 168 147 153 153 138 137 120 121 128 126 126 129 122 129 153 177 142 144 183 163 127 120 115 103 118 130 132 130 132 131 133 131
167 168 169 167 168 164 152 157 158 156 153 159 149 150 144 150 145 141 146 145 147 159 151 145 173 162 134 108 136 140 127 136 116 113 113 131 138 139 139 140 137 137 138
170 172 170 168 169 171 161 157 162 162 166 159 151 169 158 156 153 141 154 151 158 153 145 158 150 131 123 134 131 124 144 153 122 114 121 143 152 153 152 151 147 143 144
174 175 172 171 170 169 165 176 164 169 168 153 152 162 165 163 158 146 144 156 166 147 161 172 157 138 147 150 149 140 144 123 122 138 127 149 163 167 166 167 163 161 159
179 177 173 177 174 172 173 177 168 176 171 165 164 158 177 168 155 159 159 170 171 170 153 168 149 154 163 147 154 145 157 150 145 174 145 152 168 176 180 179 179 180 179
181 179 178 180 178 179 182 187 178 184 175 176 160 161 179 179 162 178 170 184 174 164 158 181 165 170 172 168 159 159 161 166 153 173 173 163 164 176 190 194 193 193 193
181 181 183 185 181 184 187 192 187 189 175 178 174 172 183 180 178 197 186 182 173 187 182 175 204 185 173 183 168 179 162 166 179 186 190 193 187 171 179 192 199 201 202
183 183 184 188 185 186 183 187 189 182 184 187 185 184 181 190 189 210 199 167 191 193 196 208 176 212 184 191 185 184 192 187 185 198 200 201 196 209 185 170 192 203 210
183 183 185 189 188 185 180 180 188 182 189 195 193 188 190 195 197 211 199 189 203 196 200 211 182 218 226 212 223 178 206 199 204 201 210 202 199 209 215 192 191 196 205
181 186 191 192 186 183 182 186 186 187 192 196 202 197 202 207 199 213 215 187 214 207 212 205 204 200 215 207 221 207 207 210 205 206 218 222 209 208 213 206 223 215 188
184 192 197 193 189 190 189 189 191 187 197 196 205 200 209 212 210 207 215 211 204 206 213 215 214 233 216 206 235 236 220 197 203 208 202 213 226 215 213 210 211 213 241
183 191 194 192 194 196 190 186 186 183 201 199 205 204 208 209 212 216 208 219 211 216 207 210 213 225 234 219 229 252 262 248 198 184 206 210 216 221 225 218 214 210 220
186 186 187 188 193 198 194 196 197 199 203 205 208 202 202 208 213 210 208 211 218 224 211 217 211 223 231 231 216 235 267 310 279 212 196 195 201 218 234 236 222 207 215
180 180 181 185 190 196 200 200 205 211 212 206 206 202 208 209 215 213 209 210 214 224 223 231 215 227 228 234 234 225 230 234 249 262 249 223 201 205 212 223 235 230 220
173 175 176 182 192 196 199 202 208 213 214 213 208 206 208 205 209 209 211 212 217 223 218 220 224 222 235 241 249 245 237 238 240 242 244 240 230 207 190 214 231 226 228